| time (UTC) | temp C | wind direction | speed KPH | gust KPH | rain 1hr cm | rain 24hr cm | rain mn cm | humidity % | barometer mb |
| 20260510024427 | 12 | 306 | 0.0 | 0.0 | 0.00 | 0.30 | 0.30 | 98 | 1010.2 |
| 20260510023923 | 12 | 309 | 0.0 | 0.0 | 0.00 | 0.30 | 0.30 | 98 | 1010.2 |
| 20260510023419 | 12 | 315 | 1.6 | 1.6 | 0.00 | 0.30 | 0.30 | 98 | 1010.2 |
| 20260510022917 | 12 | 349 | 1.6 | 3.2 | 0.00 | 0.30 | 0.30 | 98 | 1010.1 |
| 20260510022415 | 12 | 308 | 0.0 | 0.0 | 0.00 | 0.30 | 0.30 | 98 | 1010.5 |
| 20260510021915 | 12 | 308 | 0.0 | 0.0 | 0.00 | 0.30 | 0.30 | 98 | 1010.5 |
| 20260510021413 | 12 | 317 | 0.0 | 0.0 | 0.00 | 0.30 | 0.30 | 98 | 1010.0 |
| 20260510020909 | 12 | 314 | 0.0 | 0.0 | 0.00 | 0.30 | 0.30 | 98 | 1010.2 |
| 20260510020404 | 12 | 312 | 0.0 | 0.0 | 0.00 | 0.30 | 0.30 | 98 | 1010.1 |
| 20260510015900 | 12 | 314 | 0.0 | 0.0 | 0.00 | 0.30 | 0.30 | 98 | 1010.4 |
| 20260510015356 | 12 | 312 | 0.0 | 0.0 | 0.00 | 0.30 | 0.30 | 98 | 1010.3 |
| 20260510014851 | 12 | 313 | 0.0 | 0.0 | 0.00 | 0.30 | 0.30 | 97 | 1010.3 |
| 20260510014349 | 12 | 314 | 0.0 | 0.0 | 0.00 | 0.30 | 0.30 | 97 | 1010.0 |
| 20260510013845 | 12 | 313 | 0.0 | 0.0 | 0.00 | 0.30 | 0.30 | 97 | 1010.0 |
| 20260510013341 | 12 | 310 | 0.0 | 0.0 | 0.00 | 0.30 | 0.30 | 97 | 1010.2 |
| 20260510012836 | 12 | 312 | 0.0 | 0.0 | 0.00 | 0.30 | 0.30 | 97 | 1010.0 |
| 20260510012335 | 12 | 311 | 0.0 | 0.0 | 0.00 | 0.30 | 0.30 | 97 | 1010.1 |
| 20260510011831 | 12 | 339 | 0.0 | 0.0 | 0.00 | 0.30 | 0.30 | 97 | 1010.2 |
| 20260510011326 | 12 | 312 | 0.0 | 0.0 | 0.00 | 0.30 | 0.30 | 97 | 1010.0 |
| 20260510010823 | 12 | 319 | 0.0 | 0.0 | 0.00 | 0.30 | 0.30 | 97 | 1009.9 |
| 20260510010320 | 12 | 316 | 0.0 | 0.0 | 0.00 | 0.30 | 0.30 | 97 | 1009.8 |
| 20260510005817 | 12 | 309 | 0.0 | 0.0 | 0.00 | 0.30 | 0.30 | 97 | 1009.7 |
| 20260510005313 | 12 | 311 | 0.0 | 0.0 | 0.00 | 0.30 | 0.30 | 97 | 1009.6 |
| 20260510004811 | 12 | 311 | 0.0 | 0.0 | 0.00 | 0.30 | 0.30 | 97 | 1009.7 |
| 20260510004308 | 12 | 309 | 0.0 | 0.0 | 0.00 | 0.30 | 0.30 | 97 | 1009.8 |
| 20260510003806 | 12 | 312 | 1.6 | 1.6 | 0.00 | 0.30 | 0.30 | 97 | 1009.7 |
| 20260510003302 | 12 | 312 | 0.0 | 0.0 | 0.00 | 0.30 | 0.30 | 97 | 1009.6 |
| 20260510002801 | 12 | 314 | 0.0 | 0.0 | 0.00 | 0.30 | 0.30 | 97 | 1009.8 |
| 20260510002259 | 12 | 323 | 0.0 | 0.0 | 0.00 | 0.30 | 0.30 | 96 | 1009.6 |
| 20260510001755 | 12 | 312 | 0.0 | 0.0 | 0.00 | 0.30 | 0.30 | 96 | 1009.7 |
| 20260510001254 | 12 | 311 | 0.0 | 0.0 | 0.00 | 0.30 | 0.30 | 96 | 1009.6 |
| 20260510000749 | 12 | 323 | 0.0 | 0.0 | 0.00 | 0.30 | 0.30 | 96 | 1009.5 |
| 20260510000248 | 12 | 321 | 0.0 | 1.6 | 0.00 | 0.30 | 0.30 | 96 | 1009.4 |
| 20260509235744 | 12 | 310 | 0.0 | 0.0 | 0.00 | 0.30 | 0.30 | 95 | 1009.5 |
| 20260509235240 | 12 | 310 | 0.0 | 0.0 | 0.00 | 0.30 | 0.30 | 95 | 1009.5 |
| 20260509234736 | 12 | 339 | 0.0 | 0.0 | 0.00 | 0.30 | 0.30 | 95 | 1009.4 |
| 20260509234233 | 13 | 316 | 0.0 | 0.0 | 0.00 | 0.30 | 0.30 | 95 | 1009.5 |
| 20260509233731 | 13 | 311 | 0.0 | 0.0 | 0.00 | 0.30 | 0.30 | 95 | 1009.3 |
| 20260509233229 | 13 | 324 | 0.0 | 0.0 | 0.00 | 0.30 | 0.30 | 95 | 1009.1 |
| 20260509232724 | 13 | 312 | 0.0 | 0.0 | 0.00 | 0.30 | 0.30 | 95 | 1009.3 |
| 20260509232222 | 13 | 312 | 0.0 | 0.0 | 0.00 | 0.30 | 0.30 | 96 | 1009.3 |
| 20260509231718 | 13 | 319 | 1.6 | 1.6 | 0.00 | 0.30 | 0.30 | 96 | 1009.1 |
| 20260509231215 | 13 | 314 | 0.0 | 0.0 | 0.00 | 0.30 | 0.30 | 96 | 1009.2 |
| 20260509230712 | 13 | 294 | 0.0 | 0.0 | 0.00 | 0.30 | 0.30 | 96 | 1009.2 |
| 20260509230203 | 13 | 308 | 0.0 | 0.0 | 0.00 | 0.30 | 0.30 | 96 | 1009.4 |
| 20260509225659 | 13 | 309 | 0.0 | 0.0 | 0.00 | 0.30 | 0.30 | 96 | 1009.5 |
| 20260509225154 | 13 | 307 | 0.0 | 1.6 | 0.00 | 0.30 | 0.30 | 96 | 1009.9 |
| 20260509224651 | 13 | 312 | 0.0 | 0.0 | 0.18 | 0.30 | 0.30 | 95 | 1010.0 |
| 20260509224148 | 13 | 306 | 0.0 | 0.0 | 0.30 | 0.30 | 0.30 | 95 | 1009.8 |
| 20260509223645 | 13 | 310 | 0.0 | 0.0 | 0.30 | 0.28 | 0.28 | 95 | 1009.7 |
| 20260509223142 | 13 | 340 | 1.6 | 3.2 | 0.48 | 0.25 | 0.25 | 94 | 1010.1 |
| 20260509222639 | 13 | 310 | 1.6 | 1.6 | 0.43 | 0.23 | 0.23 | 94 | 1009.9 |
| 20260509222134 | 13 | 310 | 0.0 | 0.0 | 0.13 | 0.18 | 0.18 | 93 | 1010.2 |
| 20260509221630 | 13 | 307 | 0.0 | 0.0 | 0.00 | 0.15 | 0.15 | 93 | 1010.4 |
| 20260509221126 | 14 | 308 | 0.0 | 0.0 | 0.18 | 0.15 | 0.15 | 93 | 1010.1 |
| 20260509220622 | 14 | 309 | 0.0 | 0.0 | 0.79 | 0.15 | 0.15 | 92 | 1010.1 |
| 20260509220119 | 14 | 310 | 0.0 | 0.0 | 0.79 | 0.13 | 0.13 | 91 | 1009.7 |
| 20260509215615 | 14 | 306 | 0.0 | 1.6 | 0.30 | 0.05 | 0.05 | 88 | 1010.8 |
| 20260509215112 | 14 | 294 | 1.6 | 1.6 | 0.00 | 0.00 | 0.00 | 88 | 1010.6 |
| 20260509214608 | 14 | 312 | 0.0 | 0.0 | 0.00 | 0.00 | 0.00 | 88 | 1009.8 |
| 20260509214105 | 15 | 314 | 0.0 | 0.0 | 0.00 | 0.00 | 0.00 | 88 | 1010.0 |
| 20260509213601 | 14 | 301 | 3.2 | 3.2 | 0.00 | 0.00 | 0.00 | 87 | 1009.7 |
| 20260509213058 | 14 | 331 | 0.0 | 0.0 | 0.00 | 0.00 | 0.00 | 87 | 1009.7 |
| 20260509212555 | 14 | 311 | 0.0 | 0.0 | 0.00 | 0.00 | 0.00 | 86 | 1010.1 |
| 20260509212053 | 14 | 312 | 0.0 | 0.0 | 0.00 | 0.00 | 0.00 | 85 | 1010.1 |
| 20260509211548 | 15 | 303 | 1.6 | 1.6 | 0.00 | 0.00 | 0.00 | 85 | 1010.0 |
| 20260509211045 | 15 | 306 | 1.6 | 1.6 | 0.00 | 0.00 | 0.00 | 86 | 1010.1 |
| 20260509210542 | 14 | 312 | 1.6 | 3.2 | 0.00 | 0.00 | 0.00 | 86 | 1010.1 |
| 20260509210038 | 14 | 305 | 3.2 | 4.8 | 0.00 | 0.00 | 0.00 | 86 | 1009.8 |
| 20260509205538 | 14 | 315 | 1.6 | 1.6 | 0.00 | 0.00 | 0.00 | 87 | 1010.0 |
| 20260509205033 | 14 | 306 | 0.0 | 0.0 | 0.00 | 0.00 | 0.00 | 87 | 1010.2 |
| 20260509204530 | 14 | 296 | 0.0 | 0.0 | 0.00 | 0.10 | 0.10 | 87 | 1010.2 |
| 20260509204026 | 14 | 304 | 3.2 | 3.2 | 0.00 | 0.10 | 0.10 | 85 | 1010.3 |
| 20260509203522 | 14 | 307 | 1.6 | 1.6 | 0.00 | 0.10 | 0.10 | 87 | 1010.2 |
| 20260509203021 | 14 | 296 | 1.6 | 1.6 | 0.00 | 0.10 | 0.10 | 86 | 1010.0 |
| 20260509202515 | 14 | 307 | 4.8 | 4.8 | 0.00 | 0.10 | 0.10 | 86 | 1010.1 |
| 20260509202011 | 14 | 309 | 3.2 | 3.2 | 0.00 | 0.10 | 0.10 | 87 | 1010.2 |
| 20260509201506 | 14 | 299 | 3.2 | 3.2 | 0.00 | 0.10 | 0.10 | 87 | 1010.1 |
| 20260509201004 | 15 | 307 | 0.0 | 0.0 | 0.00 | 0.10 | 0.10 | 88 | 1010.1 |
| 20260509200458 | 15 | 303 | 0.0 | 0.0 | 0.00 | 0.10 | 0.10 | 89 | 1010.2 |
| 20260509195955 | 15 | 293 | 0.0 | 0.0 | 0.00 | 0.10 | 0.10 | 87 | 1010.1 |
| 20260509195450 | 15 | 289 | 0.0 | 0.0 | 0.00 | 0.10 | 0.10 | 88 | 1010.6 |
| 20260509194950 | 15 | 305 | 0.0 | 0.0 | 0.00 | 0.10 | 0.10 | 89 | 1010.5 |
| 20260509194446 | 15 | 272 | 0.0 | 1.6 | 0.00 | 0.10 | 0.10 | 89 | 1010.2 |
| 20260509193943 | 15 | 310 | 0.0 | 0.0 | 0.00 | 0.10 | 0.10 | 90 | 1010.2 |
| 20260509193443 | 15 | 344 | 1.6 | 3.2 | 0.00 | 0.10 | 0.10 | 89 | 1010.3 |
| 20260509192939 | 15 | 321 | 0.0 | 0.0 | 0.00 | 0.10 | 0.10 | 90 | 1010.3 |
| 20260509192436 | 15 | 331 | 0.0 | 0.0 | 0.00 | 0.10 | 0.10 | 90 | 1010.3 |
| 20260509191931 | 15 | 34 | 0.0 | 3.2 | 0.00 | 0.10 | 0.10 | 90 | 1010.1 |
| 20260509191426 | 15 | 354 | 6.4 | 6.4 | 0.00 | 0.10 | 0.10 | 88 | 1010.2 |
| 20260509190922 | 15 | 306 | 0.0 | 0.0 | 0.00 | 0.10 | 0.10 | 87 | 1009.9 |
| 20260509190420 | 15 | 318 | 0.0 | 0.0 | 0.00 | 0.10 | 0.10 | 86 | 1010.0 |
| 20260509185917 | 15 | 310 | 0.0 | 0.0 | 0.00 | 0.10 | 0.10 | 88 | 1010.1 |
| 20260509185415 | 15 | 322 | 0.0 | 0.0 | 0.13 | 0.10 | 0.10 | 91 | 1010.0 |
| 20260509184911 | 15 | 302 | 0.0 | 1.6 | 0.30 | 0.10 | 0.10 | 90 | 1010.2 |
| 20260509184408 | 15 | 221 | 3.2 | 4.8 | 0.18 | 0.08 | 0.08 | 89 | 1011.1 |
| 20260509183905 | 15 | 162 | 4.8 | 9.7 | 0.13 | 0.05 | 0.05 | 87 | 1011.0 |
| 20260509183359 | 15 | 306 | 1.6 | 3.2 | 0.13 | 0.05 | 0.05 | 87 | 1010.8 |
| 20260509182856 | 15 | 284 | 3.2 | 3.2 | 0.18 | 0.03 | 0.03 | 87 | 1010.7 |
| 20260509182353 | 15 | 28 | 4.8 | 4.8 | 0.18 | 0.03 | 0.03 | 86 | 1010.8 |
| 20260509181850 | 16 | 50 | 3.2 | 4.8 | 0.00 | 0.00 | 0.00 | 81 | 1010.4 |
| 20260509181347 | 16 | 208 | 1.6 | 3.2 | 0.00 | 0.00 | 0.00 | 79 | 1010.2 |
| 20260509180845 | 16 | 191 | 3.2 | 3.2 | 0.00 | 0.00 | 0.00 | 81 | 1010.0 |
| 20260509180341 | 16 | 300 | 1.6 | 1.6 | 0.00 | 0.00 | 0.00 | 83 | 1009.8 |
| 20260509175838 | 15 | 329 | 3.2 | 3.2 | 0.00 | 0.00 | 0.00 | 83 | 1009.8 |
| 20260509175334 | 15 | 44 | 0.0 | 1.6 | 0.00 | 0.00 | 0.00 | 83 | 1009.9 |
| 20260509174830 | 16 | 350 | 6.4 | 6.4 | 0.00 | 0.00 | 0.00 | 84 | 1010.1 |
| 20260509174326 | 15 | 70 | 6.4 | 9.7 | 0.00 | 0.00 | 0.00 | 84 | 1010.3 |
| 20260509173822 | 15 | 307 | 0.0 | 1.6 | 0.00 | 0.00 | 0.00 | 84 | 1010.1 |
| 20260509173317 | 15 | 69 | 4.8 | 6.4 | 0.00 | 0.00 | 0.00 | 83 | 1010.2 |
| 20260509172814 | 15 | 48 | 4.8 | 4.8 | 0.00 | 0.00 | 0.00 | 82 | 1010.0 |
| 20260509172311 | 15 | 1 | 3.2 | 3.2 | 0.00 | 0.00 | 0.00 | 83 | 1010.0 |
| 20260509171806 | 15 | 309 | 1.6 | 1.6 | 0.00 | 0.00 | 0.00 | 84 | 1010.1 |
| 20260509171302 | 15 | 50 | 1.6 | 3.2 | 0.00 | 0.00 | 0.00 | 85 | 1010.1 |
| 20260509170759 | 15 | 16 | 3.2 | 3.2 | 0.00 | 0.00 | 0.00 | 84 | 1010.1 |
| 20260509170255 | 15 | 64 | 1.6 | 1.6 | 0.00 | 0.00 | 0.00 | 82 | 1010.3 |
| 20260509165754 | 16 | 54 | 3.2 | 3.2 | 0.00 | 0.00 | 0.00 | 79 | 1010.2 |
| 20260509165249 | 17 | 22 | 4.8 | 4.8 | 0.00 | 0.00 | 0.00 | 75 | 1010.3 |
| 20260509164746 | 18 | 61 | 3.2 | 4.8 | 0.00 | 0.00 | 0.00 | 69 | 1010.2 |
| 20260509164241 | 18 | 324 | 0.0 | 1.6 | 0.00 | 0.00 | 0.00 | 67 | 1010.1 |
| 20260509163739 | 18 | 329 | 1.6 | 1.6 | 0.00 | 0.00 | 0.00 | 65 | 1010.0 |
| 20260509163235 | 18 | 303 | 0.0 | 0.0 | 0.00 | 0.00 | 0.00 | 64 | 1010.5 |
| 20260509162733 | 18 | 325 | 0.0 | 1.6 | 0.00 | 0.00 | 0.00 | 64 | 1010.3 |
| 20260509162227 | 18 | 308 | 0.0 | 1.6 | 0.00 | 0.00 | 0.00 | 64 | 1010.2 |
| 20260509161724 | 17 | 311 | 0.0 | 0.0 | 0.00 | 0.00 | 0.00 | 67 | 1010.5 |
| 20260509161220 | 17 | 305 | 0.0 | 1.6 | 0.00 | 0.00 | 0.00 | 68 | 1010.7 |
| 20260509160715 | 16 | 341 | 3.2 | 3.2 | 0.00 | 0.00 | 0.00 | 69 | 1010.8 |
| 20260509160212 | 16 | 342 | 3.2 | 4.8 | 0.00 | 0.00 | 0.00 | 70 | 1010.9 |
| 20260509155707 | 16 | 0 | 0.0 | 1.6 | 0.00 | 0.00 | 0.00 | 71 | 1010.9 |
| 20260509155203 | 16 | 4 | 3.2 | 3.2 | 0.00 | 0.00 | 0.00 | 71 | 1010.9 |
| 20260509154700 | 16 | 344 | 1.6 | 3.2 | 0.00 | 0.00 | 0.00 | 72 | 1011.1 |
| 20260509154157 | 16 | 319 | 4.8 | 6.4 | 0.00 | 0.00 | 0.00 | 71 | 1011.1 |
| 20260509153654 | 16 | 325 | 3.2 | 4.8 | 0.00 | 0.00 | 0.00 | 70 | 1011.2 |
| 20260509153150 | 17 | 312 | 0.0 | 1.6 | 0.00 | 0.00 | 0.00 | 68 | 1011.3 |
| 20260509152646 | 17 | 277 | 1.6 | 3.2 | 0.00 | 0.00 | 0.00 | 67 | 1011.4 |
| 20260509152143 | 17 | 312 | 1.6 | 1.6 | 0.00 | 0.00 | 0.00 | 67 | 1011.2 |
| 20260509151640 | 17 | 210 | 6.4 | 6.4 | 0.00 | 0.00 | 0.00 | 66 | 1011.1 |
| 20260509151137 | 17 | 202 | 4.8 | 6.4 | 0.00 | 0.00 | 0.00 | 67 | 1011.3 |
| 20260509150635 | 17 | 244 | 4.8 | 6.4 | 0.00 | 0.00 | 0.00 | 66 | 1011.3 |
| 20260509150133 | 17 | 228 | 3.2 | 4.8 | 0.00 | 0.00 | 0.00 | 67 | 1011.5 |
| 20260509145629 | 17 | 314 | 1.6 | 3.2 | 0.00 | 0.00 | 0.00 | 66 | 1011.3 |
| 20260509145124 | 17 | 287 | 1.6 | 3.2 | 0.00 | 0.00 | 0.00 | 67 | 1011.3 |
| 20260509144621 | 17 | 198 | 3.2 | 3.2 | 0.00 | 0.00 | 0.00 | 65 | 1011.4 |
| 20260509144118 | 17 | 259 | 1.6 | 3.2 | 0.00 | 0.00 | 0.00 | 66 | 1011.3 |
| 20260509143615 | 17 | 276 | 4.8 | 6.4 | 0.00 | 0.00 | 0.00 | 66 | 1011.2 |
| 20260509143113 | 16 | 205 | 1.6 | 4.8 | 0.00 | 0.00 | 0.00 | 67 | 1011.1 |
| 20260509142608 | 16 | 304 | 1.6 | 3.2 | 0.00 | 0.00 | 0.00 | 68 | 1011.3 |
| 20260509142104 | 16 | 208 | 3.2 | 4.8 | 0.00 | 0.00 | 0.00 | 70 | 1011.1 |
| 20260509141601 | 16 | 317 | 3.2 | 11.3 | 0.00 | 0.00 | 0.00 | 68 | 1011.5 |
| 20260509141057 | 16 | 312 | 1.6 | 1.6 | 0.00 | 0.00 | 0.00 | 69 | 1011.3 |
| 20260509140554 | 15 | 306 | 1.6 | 1.6 | 0.00 | 0.00 | 0.00 | 69 | 1011.3 |
| 20260509140052 | 15 | 251 | 3.2 | 3.2 | 0.00 | 0.00 | 0.00 | 70 | 1011.6 |
| 20260509135549 | 15 | 296 | 0.0 | 1.6 | 0.00 | 0.00 | 0.00 | 71 | 1011.5 |
| 20260509135047 | 15 | 186 | 1.6 | 3.2 | 0.00 | 0.00 | 0.00 | 72 | 1011.5 |
| 20260509134544 | 15 | 304 | 0.0 | 0.0 | 0.00 | 0.00 | 0.00 | 71 | 1011.3 |
| 20260509134041 | 15 | 202 | 1.6 | 3.2 | 0.00 | 0.00 | 0.00 | 72 | 1011.4 |
| 20260509133538 | 14 | 139 | 6.4 | 6.4 | 0.00 | 0.00 | 0.00 | 73 | 1011.3 |
| 20260509133035 | 15 | 152 | 3.2 | 4.8 | 0.00 | 0.00 | 0.00 | 73 | 1011.6 |
| 20260509132533 | 15 | 188 | 3.2 | 9.7 | 0.00 | 0.00 | 0.00 | 72 | 1011.4 |
| 20260509132031 | 15 | 205 | 3.2 | 6.4 | 0.00 | 0.00 | 0.00 | 70 | 1011.5 |
| 20260509131522 | 15 | 27 | 3.2 | 3.2 | 0.00 | 0.00 | 0.00 | 70 | 1011.4 |
| 20260509131019 | 15 | 218 | 3.2 | 4.8 | 0.00 | 0.00 | 0.00 | 71 | 1011.4 |
| 20260509130514 | 15 | 32 | 1.6 | 1.6 | 0.00 | 0.00 | 0.00 | 71 | 1011.5 |
| 20260509130012 | 15 | 6 | 1.6 | 3.2 | 0.00 | 0.00 | 0.00 | 71 | 1011.7 |
| 20260509125508 | 15 | 299 | 0.0 | 0.0 | 0.00 | 0.00 | 0.00 | 72 | 1011.9 |
| 20260509125004 | 14 | 312 | 0.0 | 0.0 | 0.00 | 0.00 | 0.00 | 73 | 1011.8 |
| 20260509124501 | 14 | 307 | 0.0 | 1.6 | 0.00 | 0.00 | 0.00 | 73 | 1011.8 |
| 20260509123958 | 14 | 302 | 0.0 | 0.0 | 0.00 | 0.00 | 0.00 | 71 | 1011.8 |
| 20260509123456 | 14 | 313 | 1.6 | 3.2 | 0.00 | 0.00 | 0.00 | 72 | 1011.9 |
| 20260509122951 | 14 | 304 | 1.6 | 1.6 | 0.00 | 0.00 | 0.00 | 72 | 1011.8 |
| 20260509122449 | 14 | 308 | 3.2 | 4.8 | 0.00 | 0.00 | 0.00 | 72 | 1012.0 |
| 20260509121945 | 14 | 315 | 1.6 | 1.6 | 0.00 | 0.00 | 0.00 | 72 | 1012.0 |
| 20260509121442 | 14 | 304 | 0.0 | 0.0 | 0.00 | 0.00 | 0.00 | 71 | 1011.8 |
| 20260509120940 | 14 | 351 | 1.6 | 1.6 | 0.00 | 0.00 | 0.00 | 72 | 1011.8 |
| 20260509120438 | 14 | 308 | 1.6 | 3.2 | 0.00 | 0.00 | 0.00 | 71 | 1011.9 |
| 20260509115936 | 14 | 302 | 0.0 | 1.6 | 0.00 | 0.00 | 0.00 | 71 | 1011.7 |
| 20260509115432 | 13 | 289 | 0.0 | 1.6 | 0.00 | 0.00 | 0.00 | 71 | 1012.1 |
| 20260509114930 | 13 | 182 | 4.8 | 4.8 | 0.00 | 0.00 | 0.00 | 71 | 1011.9 |
| 20260509114429 | 13 | 262 | 3.2 | 4.8 | 0.00 | 0.00 | 0.00 | 71 | 1012.0 |
| 20260509113928 | 13 | 261 | 0.0 | 1.6 | 0.00 | 0.00 | 0.00 | 71 | 1012.0 |
| 20260509113425 | 13 | 165 | 6.4 | 9.7 | 0.00 | 0.00 | 0.00 | 71 | 1011.9 |
| 20260509112921 | 13 | 195 | 4.8 | 6.4 | 0.00 | 0.00 | 0.00 | 71 | 1011.9 |
| 20260509112419 | 13 | 182 | 4.8 | 6.4 | 0.00 | 0.00 | 0.00 | 71 | 1011.9 |
| 20260509111915 | 13 | 149 | 3.2 | 6.4 | 0.00 | 0.00 | 0.00 | 71 | 1011.6 |
| 20260509111412 | 13 | 274 | 3.2 | 4.8 | 0.00 | 0.00 | 0.00 | 71 | 1011.8 |
| 20260509110910 | 13 | 301 | 1.6 | 1.6 | 0.00 | 0.00 | 0.00 | 71 | 1011.9 |
| 20260509110406 | 13 | 172 | 6.4 | 9.7 | 0.00 | 0.00 | 0.00 | 71 | 1011.8 |
| 20260509105904 | 13 | 135 | 6.4 | 6.4 | 0.00 | 0.00 | 0.00 | 71 | 1012.0 |
| 20260509105402 | 13 | 231 | 3.2 | 4.8 | 0.00 | 0.00 | 0.00 | 72 | 1011.8 |
| 20260509104859 | 13 | 140 | 9.7 | 14.5 | 0.00 | 0.00 | 0.00 | 71 | 1011.7 |
| 20260509104355 | 13 | 310 | 0.0 | 0.0 | 0.00 | 0.00 | 0.00 | 72 | 1011.5 |
| 20260509103853 | 13 | 248 | 6.4 | 11.3 | 0.00 | 0.00 | 0.00 | 72 | 1011.4 |
| 20260509103350 | 13 | 188 | 3.2 | 3.2 | 0.00 | 0.00 | 0.00 | 72 | 1011.6 |
| 20260509102849 | 13 | 285 | 0.0 | 0.0 | 0.00 | 0.00 | 0.00 | 72 | 1011.8 |
| 20260509102346 | 13 | 268 | 0.0 | 0.0 | 0.00 | 0.00 | 0.00 | 72 | 1011.5 |
| 20260509101841 | 13 | 301 | 0.0 | 1.6 | 0.00 | 0.00 | 0.00 | 74 | 1011.5 |
| 20260509101338 | 13 | 314 | 1.6 | 1.6 | 0.00 | 0.00 | 0.00 | 75 | 1011.4 |
| 20260509100836 | 12 | 327 | 0.0 | 0.0 | 0.00 | 0.00 | 0.00 | 76 | 1011.6 |
| 20260509100333 | 12 | 326 | 1.6 | 1.6 | 0.00 | 0.00 | 0.00 | 76 | 1011.4 |
| 20260509095829 | 12 | 328 | 0.0 | 0.0 | 0.00 | 0.00 | 0.00 | 76 | 1011.3 |
| 20260509095327 | 12 | 319 | 1.6 | 1.6 | 0.00 | 0.00 | 0.00 | 77 | 1011.3 |
| 20260509094824 | 12 | 321 | 3.2 | 3.2 | 0.00 | 0.00 | 0.00 | 77 | 1011.4 |
| 20260509094320 | 12 | 324 | 1.6 | 3.2 | 0.00 | 0.00 | 0.00 | 78 | 1011.5 |
| 20260509093818 | 12 | 325 | 0.0 | 1.6 | 0.00 | 0.00 | 0.00 | 78 | 1011.6 |
| 20260509093315 | 12 | 319 | 0.0 | 0.0 | 0.00 | 0.00 | 0.00 | 77 | 1011.2 |
| 20260509092814 | 12 | 318 | 0.0 | 0.0 | 0.00 | 0.00 | 0.00 | 78 | 1011.1 |
| 20260509092311 | 12 | 322 | 1.6 | 1.6 | 0.00 | 0.00 | 0.00 | 78 | 1011.4 |
| 20260509091809 | 12 | 329 | 1.6 | 1.6 | 0.00 | 0.00 | 0.00 | 78 | 1011.4 |
| 20260509091305 | 12 | 311 | 0.0 | 0.0 | 0.00 | 0.00 | 0.00 | 78 | 1011.6 |
| 20260509090803 | 12 | 313 | 0.0 | 1.6 | 0.00 | 0.00 | 0.00 | 78 | 1011.4 |
| 20260509090300 | 12 | 316 | 1.6 | 1.6 | 0.00 | 0.00 | 0.00 | 78 | 1011.3 |
| 20260509085757 | 13 | 306 | 0.0 | 0.0 | 0.00 | 0.00 | 0.00 | 78 | 1011.3 |
| 20260509085254 | 13 | 296 | 1.6 | 1.6 | 0.00 | 0.00 | 0.00 | 77 | 1011.4 |
| 20260509084751 | 13 | 313 | 1.6 | 3.2 | 0.00 | 0.00 | 0.00 | 77 | 1011.3 |
| 20260509084248 | 13 | 318 | 1.6 | 3.2 | 0.00 | 0.00 | 0.00 | 74 | 1011.5 |
| 20260509083746 | 13 | 333 | 1.6 | 1.6 | 0.00 | 0.00 | 0.00 | 72 | 1011.3 |
| 20260509083242 | 13 | 324 | 0.0 | 1.6 | 0.00 | 0.00 | 0.00 | 73 | 1011.5 |
| 20260509082738 | 13 | 318 | 0.0 | 0.0 | 0.00 | 0.00 | 0.00 | 74 | 1011.5 |
| 20260509082235 | 13 | 318 | 0.0 | 0.0 | 0.00 | 0.00 | 0.00 | 75 | 1011.6 |
| 20260509081732 | 13 | 317 | 0.0 | 0.0 | 0.00 | 0.00 | 0.00 | 75 | 1011.6 |
| 20260509081230 | 13 | 317 | 0.0 | 0.0 | 0.00 | 0.00 | 0.00 | 76 | 1011.3 |
| 20260509080728 | 13 | 317 | 0.0 | 0.0 | 0.00 | 0.00 | 0.00 | 76 | 1011.4 |
| 20260509080225 | 13 | 317 | 0.0 | 0.0 | 0.00 | 0.00 | 0.00 | 76 | 1011.5 |
| 20260509075723 | 13 | 318 | 0.0 | 0.0 | 0.00 | 0.00 | 0.00 | 75 | 1011.4 |
| 20260509075221 | 13 | 318 | 0.0 | 0.0 | 0.00 | 0.00 | 0.00 | 75 | 1011.4 |
| 20260509074717 | 13 | 336 | 0.0 | 0.0 | 0.00 | 0.00 | 0.00 | 73 | 1011.6 |
| 20260509074215 | 13 | 324 | 0.0 | 0.0 | 0.00 | 0.00 | 0.00 | 74 | 1011.6 |
| 20260509073711 | 13 | 325 | 0.0 | 0.0 | 0.00 | 0.00 | 0.00 | 74 | 1011.7 |
| 20260509073207 | 13 | 340 | 1.6 | 1.6 | 0.00 | 0.00 | 0.00 | 74 | 1011.7 |
| 20260509072704 | 12 | 317 | 0.0 | 0.0 | 0.00 | 0.00 | 0.00 | 76 | 1011.7 |
| 20260509072201 | 12 | 310 | 0.0 | 0.0 | 0.00 | 0.00 | 0.00 | 77 | 1011.8 |
| 20260509071657 | 12 | 312 | 0.0 | 0.0 | 0.00 | 0.00 | 0.00 | 77 | 1011.7 |
| 20260509071155 | 13 | 343 | 3.2 | 3.2 | 0.00 | 0.00 | 0.00 | 77 | 1011.4 |
| 20260509070652 | 13 | 312 | 0.0 | 0.0 | 0.00 | 0.00 | 0.00 | 77 | 1011.5 |
| 20260509070148 | 13 | 322 | 0.0 | 1.6 | 0.00 | 0.00 | 0.00 | 77 | 1011.4 |
| 20260509065644 | 13 | 351 | 1.6 | 3.2 | 0.00 | 0.00 | 0.00 | 76 | 1011.6 |
| 20260509065140 | 13 | 16 | 3.2 | 3.2 | 0.00 | 0.00 | 0.00 | 76 | 1011.7 |
| 20260509064637 | 13 | 320 | 3.2 | 3.2 | 0.00 | 0.00 | 0.00 | 77 | 1011.4 |
| 20260509064135 | 12 | 325 | 0.0 | 1.6 | 0.00 | 0.00 | 0.00 | 77 | 1011.3 |
| 20260509063632 | 12 | 319 | 0.0 | 0.0 | 0.00 | 0.00 | 0.00 | 77 | 1011.3 |
| 20260509063128 | 13 | 319 | 1.6 | 1.6 | 0.00 | 0.00 | 0.00 | 77 | 1011.5 |
| 20260509062626 | 13 | 309 | 0.0 | 1.6 | 0.00 | 0.00 | 0.00 | 77 | 1011.5 |
| 20260509062123 | 13 | 315 | 0.0 | 0.0 | 0.00 | 0.00 | 0.00 | 78 | 1011.5 |
| 20260509061619 | 13 | 312 | 0.0 | 0.0 | 0.00 | 0.00 | 0.00 | 78 | 1011.9 |
| 20260509061117 | 13 | 312 | 0.0 | 1.6 | 0.00 | 0.00 | 0.00 | 77 | 1011.9 |
| 20260509060615 | 13 | 312 | 1.6 | 3.2 | 0.00 | 0.00 | 0.00 | 77 | 1012.0 |
| 20260509060110 | 13 | 305 | 0.0 | 0.0 | 0.00 | 0.00 | 0.00 | 76 | 1012.3 |
| 20260509055606 | 13 | 331 | 1.6 | 1.6 | 0.00 | 0.00 | 0.00 | 75 | 1012.0 |
| 20260509055102 | 13 | 318 | 0.0 | 0.0 | 0.00 | 0.00 | 0.00 | 74 | 1012.3 |
| 20260509054559 | 13 | 341 | 1.6 | 1.6 | 0.00 | 0.00 | 0.00 | 73 | 1012.3 |
| 20260509054057 | 13 | 317 | 1.6 | 1.6 | 0.00 | 0.00 | 0.00 | 72 | 1012.1 |
| 20260509053555 | 13 | 310 | 1.6 | 1.6 | 0.00 | 0.00 | 0.00 | 71 | 1012.3 |
| 20260509053051 | 13 | 322 | 1.6 | 1.6 | 0.00 | 0.00 | 0.00 | 70 | 1012.1 |
| 20260509052549 | 13 | 357 | 1.6 | 1.6 | 0.00 | 0.00 | 0.00 | 69 | 1012.1 |
| 20260509052047 | 13 | 314 | 0.0 | 0.0 | 0.00 | 0.00 | 0.00 | 67 | 1012.4 |
| 20260509051545 | 13 | 317 | 0.0 | 0.0 | 0.00 | 0.00 | 0.00 | 67 | 1012.3 |
| 20260509051041 | 13 | 315 | 0.0 | 0.0 | 0.00 | 0.00 | 0.00 | 66 | 1012.2 |
| 20260509050539 | 13 | 319 | 0.0 | 0.0 | 0.00 | 0.00 | 0.00 | 66 | 1012.1 |
| 20260509050035 | 13 | 319 | 0.0 | 0.0 | 0.00 | 0.00 | 0.00 | 66 | 1012.1 |
| 20260509045532 | 13 | 317 | 0.0 | 0.0 | 0.00 | 0.00 | 0.00 | 67 | 1012.1 |
| 20260509045029 | 12 | 316 | 0.0 | 0.0 | 0.00 | 0.00 | 0.00 | 68 | 1012.0 |
| 20260509044527 | 12 | 316 | 0.0 | 0.0 | 0.00 | 0.00 | 0.00 | 69 | 1012.1 |
| 20260509044024 | 12 | 315 | 0.0 | 0.0 | 0.00 | 0.00 | 0.00 | 69 | 1011.9 |
| 20260509043520 | 12 | 315 | 0.0 | 0.0 | 0.00 | 0.00 | 0.00 | 69 | 1012.0 |
| 20260509043010 | 12 | 315 | 0.0 | 0.0 | 0.00 | 0.00 | 0.00 | 69 | 1012.1 |
| 20260509042507 | 12 | 315 | 0.0 | 0.0 | 0.00 | 0.00 | 0.00 | 68 | 1012.2 |
| 20260509042003 | 12 | 315 | 0.0 | 0.0 | 0.00 | 0.00 | 0.00 | 69 | 1012.0 |
| 20260509041500 | 12 | 316 | 0.0 | 0.0 | 0.00 | 0.00 | 0.00 | 68 | 1012.1 |
| 20260509040958 | 12 | 315 | 0.0 | 0.0 | 0.00 | 0.00 | 0.00 | 68 | 1012.0 |
| 20260509040456 | 12 | 315 | 0.0 | 0.0 | 0.00 | 0.00 | 0.00 | 68 | 1011.9 |
| 20260509035952 | 13 | 315 | 0.0 | 0.0 | 0.00 | 0.00 | 0.00 | 66 | 1012.0 |
| 20260509035449 | 13 | 317 | 0.0 | 1.6 | 0.00 | 0.00 | 0.00 | 66 | 1012.1 |
| 20260509034945 | 13 | 313 | 0.0 | 1.6 | 0.00 | 0.00 | 0.00 | 65 | 1012.3 |
| 20260509034443 | 13 | 314 | 0.0 | 1.6 | 0.00 | 0.00 | 0.00 | 65 | 1012.3 |
| 20260509033940 | 13 | 310 | 0.0 | 0.0 | 0.00 | 0.00 | 0.00 | 65 | 1012.1 |
| 20260509033437 | 13 | 310 | 0.0 | 0.0 | 0.00 | 0.00 | 0.00 | 65 | 1012.2 |
| 20260509032934 | 13 | 311 | 0.0 | 1.6 | 0.00 | 0.00 | 0.00 | 65 | 1012.1 |
| 20260509032431 | 13 | 315 | 1.6 | 1.6 | 0.00 | 0.00 | 0.00 | 65 | 1012.2 |
| 20260509031929 | 13 | 314 | 0.0 | 0.0 | 0.00 | 0.00 | 0.00 | 65 | 1012.1 |
| 20260509031426 | 13 | 315 | 0.0 | 0.0 | 0.00 | 0.00 | 0.00 | 65 | 1012.5 |
| 20260509030924 | 13 | 311 | 0.0 | 1.6 | 0.00 | 0.00 | 0.00 | 64 | 1012.3 |
| 20260509030421 | 13 | 311 | 0.0 | 0.0 | 0.00 | 0.00 | 0.00 | 63 | 1012.2 |
| 20260509025918 | 13 | 311 | 0.0 | 0.0 | 0.00 | 0.00 | 0.00 | 63 | 1012.5 |
| 20260509025414 | 13 | 311 | 0.0 | 0.0 | 0.00 | 0.00 | 0.00 | 63 | 1012.3 |
| 20260509024909 | 14 | 312 | 0.0 | 1.6 | 0.00 | 0.00 | 0.00 | 62 | 1012.3 |